Date_Time,Julian_Date,Latitude,Longitude,Instrument_Depth,U,V,Speed,Direction
(yyyy-mm-dd hh:mn:ss UTC),(JD),(+ deg. North),(+ deg. East),(m),(cm/s),(cm/s),(cm/s),(deg True)
1981-11-18 00:00:00 UTC,2444926.500000,29.7697,-93.3439,0046,-1.26,35.98,36.0000,358.0000
1981-11-18 00:30:00 UTC,2444926.520833,29.7697,-93.3439,0046,-1.95,55.97,56.0000,358.0000
1981-11-18 01:00:00 UTC,2444926.541667,29.7697,-93.3439,0046,-2.41,68.96,69.0000,358.0000
1981-11-18 01:30:00 UTC,2444926.562500,29.7697,-93.3439,0046,-1.29,73.99,74.0000,359.0000
1981-11-18 02:00:00 UTC,2444926.583333,29.7697,-93.3439,0046,-1.29,73.99,74.0000,359.0000
1981-11-18 02:30:00 UTC,2444926.604167,29.7697,-93.3439,0046,1.27,72.99,73.0000,1.0000
1981-11-18 03:00:00 UTC,2444926.625000,29.7697,-93.3439,0046,1.29,73.99,74.0000,1.0000
1981-11-18 03:30:00 UTC,2444926.645833,29.7697,-93.3439,0046,1.29,73.99,74.0000,1.0000
1981-11-18 04:00:00 UTC,2444926.666667,29.7697,-93.3439,0046,0.00,0.00,0.0000,0.0000
1981-11-18 04:30:00 UTC,2444926.687500,29.7697,-93.3439,0046,0.00,0.00,0.0000,0.0000
1981-11-18 05:00:00 UTC,2444926.708333,29.7697,-93.3439,0046,-1.15,65.99,66.0000,359.0000
1981-11-18 05:30:00 UTC,2444926.729167,29.7697,-93.3439,0046,-1.13,64.99,65.0000,359.0000
1981-11-18 06:00:00 UTC,2444926.750000,29.7697,-93.3439,0046,-1.15,65.99,66.0000,359.0000
1981-11-18 06:30:00 UTC,2444926.770833,29.7697,-93.3439,0046,-1.10,62.99,63.0000,359.0000
1981-11-18 07:00:00 UTC,2444926.791667,29.7697,-93.3439,0046,-0.94,53.99,54.0000,359.0000
1981-11-18 07:30:00 UTC,2444926.812500,29.7697,-93.3439,0046,-0.77,43.99,44.0000,359.0000
1981-11-18 08:00:00 UTC,2444926.833333,29.7697,-93.3439,0046,0.00,0.00,0.0000,0.0000
1981-11-18 08:30:00 UTC,2444926.854167,29.7697,-93.3439,0046,0.00,0.00,0.0000,0.0000
1981-11-18 09:00:00 UTC,2444926.875000,29.7697,-93.3439,0046,0.84,23.99,24.0000,2.0000
1981-11-18 09:30:00 UTC,2444926.895833,29.7697,-93.3439,0046,2.51,17.82,18.0000,8.0000
1981-11-18 10:00:00 UTC,2444926.916667,29.7697,-93.3439,0046,3.76,10.34,11.0000,20.0000
1981-11-18 10:30:00 UTC,2444926.937500,29.7697,-93.3439,0046,2.54,5.44,6.0000,25.0000
1981-11-18 11:00:00 UTC,2444926.958333,29.7697,-93.3439,0046,-0.42,2.97,3.0000,352.0000
1981-11-18 11:30:00 UTC,2444926.979167,29.7697,-93.3439,0046,-1.29,1.53,2.0000,320.0000
1981-11-18 12:00:00 UTC,2444927.000000,29.7697,-93.3439,0046,-0.94,-0.34,1.0000,250.0000
1981-11-18 12:30:00 UTC,2444927.020833,29.7697,-93.3439,0046,0.07,-4.00,4.0000,179.0000
1981-11-18 13:00:00 UTC,2444927.041667,29.7697,-93.3439,0046,0.49,-6.98,7.0000,176.0000
1981-11-18 13:30:00 UTC,2444927.062500,29.7697,-93.3439,0046,0.17,-10.00,10.0000,179.0000
1981-11-18 14:00:00 UTC,2444927.083333,29.7697,-93.3439,0046,0.63,-11.98,12.0000,177.0000
1981-11-18 14:30:00 UTC,2444927.104167,29.7697,-93.3439,0046,0.52,-14.99,15.0000,178.0000
1981-11-18 15:00:00 UTC,2444927.125000,29.7697,-93.3439,0046,0.33,-19.00,19.0000,179.0000
1981-11-18 15:30:00 UTC,2444927.145833,29.7697,-93.3439,0046,0.84,-23.99,24.0000,178.0000
1981-11-18 16:00:00 UTC,2444927.166667,29.7697,-93.3439,0046,1.36,-25.96,26.0000,177.0000
1981-11-18 16:30:00 UTC,2444927.187500,29.7697,-93.3439,0046,1.41,-26.96,27.0000,177.0000
1981-11-18 17:00:00 UTC,2444927.208333,29.7697,-93.3439,0046,1.05,-29.98,30.0000,178.0000
1981-11-18 17:30:00 UTC,2444927.229167,29.7697,-93.3439,0046,1.26,-35.98,36.0000,178.0000
1981-11-18 18:00:00 UTC,2444927.250000,29.7697,-93.3439,0046,1.43,-40.98,41.0000,178.0000
1981-11-18 18:30:00 UTC,2444927.270833,29.7697,-93.3439,0046,1.57,-44.97,45.0000,178.0000
1981-11-18 19:00:00 UTC,2444927.291667,29.7697,-93.3439,0046,2.46,-46.94,47.0000,177.0000
1981-11-18 19:30:00 UTC,2444927.312500,29.7697,-93.3439,0046,2.51,-47.93,48.0000,177.0000
1981-11-18 20:00:00 UTC,2444927.333333,29.7697,-93.3439,0046,1.64,-46.97,47.0000,178.0000
1981-11-18 20:30:00 UTC,2444927.354167,29.7697,-93.3439,0046,0.00,-47.00,47.0000,180.0000
1981-11-18 21:00:00 UTC,2444927.375000,29.7697,-93.3439,0046,-0.87,-49.99,50.0000,181.0000
1981-11-18 21:30:00 UTC,2444927.395833,29.7697,-93.3439,0046,-0.94,-53.99,54.0000,181.0000
1981-11-18 22:00:00 UTC,2444927.416667,29.7697,-93.3439,0046,0.00,-55.00,55.0000,180.0000
1981-11-18 22:30:00 UTC,2444927.437500,29.7697,-93.3439,0046,-0.92,-52.99,53.0000,181.0000
1981-11-18 23:00:00 UTC,2444927.458333,29.7697,-93.3439,0046,-0.84,-47.99,48.0000,181.0000
1981-11-18 23:30:00 UTC,2444927.479167,29.7697,-93.3439,0046,0.00,-38.00,38.0000,180.0000
1981-11-19 00:00:00 UTC,2444927.500000,29.7697,-93.3439,0046,-1.46,-20.95,21.0000,184.0000
1981-11-19 00:30:00 UTC,2444927.520833,29.7697,-93.3439,0046,-2.35,3.24,4.0000,324.0000
1981-11-19 01:00:00 UTC,2444927.541667,29.7697,-93.3439,0046,-1.08,30.98,31.0000,358.0000
1981-11-19 01:30:00 UTC,2444927.562500,29.7697,-93.3439,0046,0.00,0.00,0.0000,0.0000
1981-11-19 02:00:00 UTC,2444927.583333,29.7697,-93.3439,0046,1.12,63.99,64.0000,1.0000
1981-11-19 02:30:00 UTC,2444927.604167,29.7697,-93.3439,0046,1.27,72.99,73.0000,1.0000
1981-11-19 03:00:00 UTC,2444927.625000,29.7697,-93.3439,0046,0.00,0.00,0.0000,0.0000
1981-11-19 03:30:00 UTC,2444927.645833,29.7697,-93.3439,0046,-1.41,80.99,81.0000,359.0000
1981-11-19 04:00:00 UTC,2444927.666667,29.7697,-93.3439,0046,-1.36,77.99,78.0000,359.0000
1981-11-19 04:30:00 UTC,2444927.687500,29.7697,-93.3439,0046,-1.31,74.99,75.0000,359.0000
1981-11-19 05:00:00 UTC,2444927.708333,29.7697,-93.3439,0046,-2.55,72.96,73.0000,358.0000
1981-11-19 05:30:00 UTC,2444927.729167,29.7697,-93.3439,0046,-2.51,71.96,72.0000,358.0000
1981-11-19 06:00:00 UTC,2444927.750000,29.7697,-93.3439,0046,-1.22,69.99,70.0000,359.0000
1981-11-19 06:30:00 UTC,2444927.770833,29.7697,-93.3439,0046,0.00,0.00,0.0000,0.0000
1981-11-19 07:00:00 UTC,2444927.791667,29.7697,-93.3439,0046,0.00,0.00,0.0000,0.0000
1981-11-19 07:30:00 UTC,2444927.812500,29.7697,-93.3439,0046,-1.01,57.99,58.0000,359.0000
1981-11-19 08:00:00 UTC,2444927.833333,29.7697,-93.3439,0046,-0.87,49.99,50.0000,359.0000
1981-11-19 08:30:00 UTC,2444927.854167,29.7697,-93.3439,0046,0.70,39.99,40.0000,1.0000
1981-11-19 09:00:00 UTC,2444927.875000,29.7697,-93.3439,0046,-0.49,28.00,28.0000,359.0000
1981-11-19 09:30:00 UTC,2444927.895833,29.7697,-93.3439,0046,-0.30,17.00,17.0000,359.0000
1981-11-19 10:00:00 UTC,2444927.916667,29.7697,-93.3439,0046,0.31,8.99,9.0000,2.0000
1981-11-19 10:30:00 UTC,2444927.937500,29.7697,-93.3439,0046,0.31,2.98,3.0000,6.0000
1981-11-19 11:00:00 UTC,2444927.958333,29.7697,-93.3439,0046,-0.42,-3.98,4.0000,186.0000
1981-11-19 11:30:00 UTC,2444927.979167,29.7697,-93.3439,0046,-0.52,-14.99,15.0000,182.0000
1981-11-19 12:00:00 UTC,2444928.000000,29.7697,-93.3439,0046,0.00,-24.00,24.0000,180.0000
1981-11-19 12:30:00 UTC,2444928.020833,29.7697,-93.3439,0046,0.00,-26.00,26.0000,180.0000
1981-11-19 13:00:00 UTC,2444928.041667,29.7697,-93.3439,0046,0.44,-25.00,25.0000,179.0000
1981-11-19 13:30:00 UTC,2444928.062500,29.7697,-93.3439,0046,0.00,-23.00,23.0000,180.0000
1981-11-19 14:00:00 UTC,2444928.083333,29.7697,-93.3439,0046,-0.37,-21.00,21.0000,181.0000
1981-11-19 14:30:00 UTC,2444928.104167,29.7697,-93.3439,0046,-0.35,-20.00,20.0000,181.0000
1981-11-19 15:00:00 UTC,2444928.125000,29.7697,-93.3439,0046,0.30,-17.00,17.0000,179.0000
1981-11-19 15:30:00 UTC,2444928.145833,29.7697,-93.3439,0046,0.00,-15.00,15.0000,180.0000
1981-11-19 16:00:00 UTC,2444928.166667,29.7697,-93.3439,0046,-0.52,-14.99,15.0000,182.0000
1981-11-19 16:30:00 UTC,2444928.187500,29.7697,-93.3439,0046,-0.66,-18.99,19.0000,182.0000
1981-11-19 17:00:00 UTC,2444928.208333,29.7697,-93.3439,0046,-0.38,-22.00,22.0000,181.0000
1981-11-19 17:30:00 UTC,2444928.229167,29.7697,-93.3439,0046,0.00,-25.00,25.0000,180.0000
1981-11-19 18:00:00 UTC,2444928.250000,29.7697,-93.3439,0046,0.00,-26.00,26.0000,180.0000
1981-11-19 18:30:00 UTC,2444928.270833,29.7697,-93.3439,0046,-0.91,-25.98,26.0000,182.0000
1981-11-19 19:00:00 UTC,2444928.291667,29.7697,-93.3439,0046,-0.98,-27.98,28.0000,182.0000
1981-11-19 19:30:00 UTC,2444928.312500,29.7697,-93.3439,0046,-0.63,-35.99,36.0000,181.0000
1981-11-19 20:00:00 UTC,2444928.333333,29.7697,-93.3439,0046,0.80,-45.99,46.0000,179.0000
1981-11-19 20:30:00 UTC,2444928.354167,29.7697,-93.3439,0046,1.95,-55.97,56.0000,178.0000
1981-11-19 21:00:00 UTC,2444928.375000,29.7697,-93.3439,0046,2.20,-62.96,63.0000,178.0000
1981-11-19 21:30:00 UTC,2444928.395833,29.7697,-93.3439,0046,2.37,-67.96,68.0000,178.0000
1981-11-19 22:00:00 UTC,2444928.416667,29.7697,-93.3439,0046,1.24,-70.99,71.0000,179.0000
1981-11-19 22:30:00 UTC,2444928.437500,29.7697,-93.3439,0046,0.00,-72.00,72.0000,180.0000
1981-11-19 23:00:00 UTC,2444928.458333,29.7697,-93.3439,0046,0.00,-70.00,70.0000,180.0000
1981-11-19 23:30:00 UTC,2444928.479167,29.7697,-93.3439,0046,0.00,-67.00,67.0000,180.0000
1981-11-20 00:00:00 UTC,2444928.500000,29.7697,-93.3439,0046,0.00,-64.00,64.0000,180.0000
1981-11-20 00:30:00 UTC,2444928.520833,29.7697,-93.3439,0046,-1.08,-61.99,62.0000,181.0000
1981-11-20 01:00:00 UTC,2444928.541667,29.7697,-93.3439,0046,-2.13,-60.96,61.0000,182.0000
1981-11-20 01:30:00 UTC,2444928.562500,29.7697,-93.3439,0046,-2.06,-58.96,59.0000,182.0000
1981-11-20 02:00:00 UTC,2444928.583333,29.7697,-93.3439,0046,-0.98,-55.99,56.0000,181.0000
1981-11-20 02:30:00 UTC,2444928.604167,29.7697,-93.3439,0046,-0.91,-51.99,52.0000,181.0000
1981-11-20 03:00:00 UTC,2444928.625000,29.7697,-93.3439,0046,-0.82,-46.99,47.0000,181.0000
1981-11-20 03:30:00 UTC,2444928.645833,29.7697,-93.3439,0046,-1.43,-40.98,41.0000,182.0000
1981-11-20 04:00:00 UTC,2444928.666667,29.7697,-93.3439,0046,-2.51,-35.91,36.0000,184.0000
1981-11-20 04:30:00 UTC,2444928.687500,29.7697,-93.3439,0046,-2.16,-30.92,31.0000,184.0000
1981-11-20 05:00:00 UTC,2444928.708333,29.7697,-93.3439,0046,-2.09,-29.93,30.0000,184.0000
1981-11-20 05:30:00 UTC,2444928.729167,29.7697,-93.3439,0046,-1.73,-32.95,33.0000,183.0000
1981-11-20 06:00:00 UTC,2444928.750000,29.7697,-93.3439,0046,-1.94,-36.95,37.0000,183.0000
1981-11-20 06:30:00 UTC,2444928.770833,29.7697,-93.3439,0046,-1.54,-43.97,44.0000,182.0000
1981-11-20 07:00:00 UTC,2444928.791667,29.7697,-93.3439,0046,-0.92,-52.99,53.0000,181.0000
1981-11-20 07:30:00 UTC,2444928.812500,29.7697,-93.3439,0046,-1.06,-60.99,61.0000,181.0000
1981-11-20 08:00:00 UTC,2444928.833333,29.7697,-93.3439,0046,0.00,-65.00,65.0000,180.0000
1981-11-20 08:30:00 UTC,2444928.854167,29.7697,-93.3439,0046,0.00,-65.00,65.0000,180.0000
1981-11-20 09:00:00 UTC,2444928.875000,29.7697,-93.3439,0046,0.00,-65.00,65.0000,180.0000
1981-11-20 09:30:00 UTC,2444928.895833,29.7697,-93.3439,0046,0.00,-65.00,65.0000,180.0000
1981-11-20 10:00:00 UTC,2444928.916667,29.7697,-93.3439,0046,0.00,-65.00,65.0000,180.0000
1981-11-20 10:30:00 UTC,2444928.937500,29.7697,-93.3439,0046,0.00,-63.00,63.0000,180.0000
1981-11-20 11:00:00 UTC,2444928.958333,29.7697,-93.3439,0046,1.03,-58.99,59.0000,179.0000
1981-11-20 11:30:00 UTC,2444928.979167,29.7697,-93.3439,0046,1.92,-54.97,55.0000,178.0000
1981-11-20 12:00:00 UTC,2444929.000000,29.7697,-93.3439,0046,0.87,-49.99,50.0000,179.0000
1981-11-20 12:30:00 UTC,2444929.020833,29.7697,-93.3439,0046,-0.77,-43.99,44.0000,181.0000
1981-11-20 13:00:00 UTC,2444929.041667,29.7697,-93.3439,0046,-2.15,-40.94,41.0000,183.0000
1981-11-20 13:30:00 UTC,2444929.062500,29.7697,-93.3439,0046,-1.36,-38.98,39.0000,182.0000
1981-11-20 14:00:00 UTC,2444929.083333,29.7697,-93.3439,0046,-1.29,-36.98,37.0000,182.0000
1981-11-20 14:30:00 UTC,2444929.104167,29.7697,-93.3439,0046,-1.15,-32.98,33.0000,182.0000
1981-11-20 15:00:00 UTC,2444929.125000,29.7697,-93.3439,0046,-1.47,-27.96,28.0000,183.0000
1981-11-20 15:30:00 UTC,2444929.145833,29.7697,-93.3439,0046,-1.46,-20.95,21.0000,184.0000
1981-11-20 16:00:00 UTC,2444929.166667,29.7697,-93.3439,0046,-1.05,-11.95,12.0000,185.0000
1981-11-20 16:30:00 UTC,2444929.187500,29.7697,-93.3439,0046,-0.17,-5.00,5.0000,182.0000
1981-11-20 17:00:00 UTC,2444929.208333,29.7697,-93.3439,0046,0.09,5.00,5.0000,1.0000
1981-11-20 17:30:00 UTC,2444929.229167,29.7697,-93.3439,0046,-1.15,21.97,22.0000,357.0000
1981-11-20 18:00:00 UTC,2444929.250000,29.7697,-93.3439,0046,-3.87,36.80,37.0000,354.0000
1981-11-20 18:30:00 UTC,2444929.270833,29.7697,-93.3439,0046,-4.60,43.76,44.0000,354.0000
1981-11-20 19:00:00 UTC,2444929.291667,29.7697,-93.3439,0046,-3.21,45.89,46.0000,356.0000
1981-11-20 19:30:00 UTC,2444929.312500,29.7697,-93.3439,0046,-0.84,47.99,48.0000,359.0000
1981-11-20 20:00:00 UTC,2444929.333333,29.7697,-93.3439,0046,-0.82,46.99,47.0000,359.0000
1981-11-20 20:30:00 UTC,2444929.354167,29.7697,-93.3439,0046,-0.75,42.99,43.0000,359.0000
1981-11-20 21:00:00 UTC,2444929.375000,29.7697,-93.3439,0046,-0.66,37.99,38.0000,359.0000
1981-11-20 21:30:00 UTC,2444929.395833,29.7697,-93.3439,0046,-0.52,30.00,30.0000,359.0000
1981-11-20 22:00:00 UTC,2444929.416667,29.7697,-93.3439,0046,-0.33,19.00,19.0000,359.0000
1981-11-20 22:30:00 UTC,2444929.437500,29.7697,-93.3439,0046,-0.17,10.00,10.0000,359.0000
1981-11-20 23:00:00 UTC,2444929.458333,29.7697,-93.3439,0046,0.63,3.95,4.0000,9.0000
1981-11-20 23:30:00 UTC,2444929.479167,29.7697,-93.3439,0046,1.50,-3.71,4.0000,158.0000
1981-11-21 00:00:00 UTC,2444929.500000,29.7697,-93.3439,0046,1.74,-9.85,10.0000,170.0000
1981-11-21 00:30:00 UTC,2444929.520833,29.7697,-93.3439,0046,1.10,-8.93,9.0000,173.0000
1981-11-21 01:00:00 UTC,2444929.541667,29.7697,-93.3439,0046,0.35,-4.99,5.0000,176.0000
1981-11-21 01:30:00 UTC,2444929.562500,29.7697,-93.3439,0046,-0.03,2.00,2.0000,359.0000
1981-11-21 02:00:00 UTC,2444929.583333,29.7697,-93.3439,0046,-0.26,15.00,15.0000,359.0000
1981-11-21 02:30:00 UTC,2444929.604167,29.7697,-93.3439,0046,-0.52,30.00,30.0000,359.0000
1981-11-21 03:00:00 UTC,2444929.625000,29.7697,-93.3439,0046,-0.72,40.99,41.0000,359.0000
1981-11-21 03:30:00 UTC,2444929.645833,29.7697,-93.3439,0046,-0.86,48.99,49.0000,359.0000
1981-11-21 04:00:00 UTC,2444929.666667,29.7697,-93.3439,0046,-1.88,53.97,54.0000,358.0000
1981-11-21 04:30:00 UTC,2444929.687500,29.7697,-93.3439,0046,-2.23,63.96,64.0000,358.0000
1981-11-21 05:00:00 UTC,2444929.708333,29.7697,-93.3439,0046,-2.55,72.96,73.0000,358.0000
1981-11-21 05:30:00 UTC,2444929.729167,29.7697,-93.3439,0046,-1.26,71.99,72.0000,359.0000
1981-11-21 06:00:00 UTC,2444929.750000,29.7697,-93.3439,0046,-1.17,66.99,67.0000,359.0000
1981-11-21 06:30:00 UTC,2444929.770833,29.7697,-93.3439,0046,-1.12,63.99,64.0000,359.0000
1981-11-21 07:00:00 UTC,2444929.791667,29.7697,-93.3439,0046,-1.10,62.99,63.0000,359.0000
1981-11-21 07:30:00 UTC,2444929.812500,29.7697,-93.3439,0046,-1.05,59.99,60.0000,359.0000
1981-11-21 08:00:00 UTC,2444929.833333,29.7697,-93.3439,0046,-1.00,56.99,57.0000,359.0000
1981-11-21 08:30:00 UTC,2444929.854167,29.7697,-93.3439,0046,-0.91,51.99,52.0000,359.0000
1981-11-21 09:00:00 UTC,2444929.875000,29.7697,-93.3439,0046,-1.54,43.97,44.0000,358.0000
1981-11-21 09:30:00 UTC,2444929.895833,29.7697,-93.3439,0046,-0.56,32.00,32.0000,359.0000
1981-11-21 10:00:00 UTC,2444929.916667,29.7697,-93.3439,0046,0.56,15.99,16.0000,2.0000
1981-11-21 10:30:00 UTC,2444929.937500,29.7697,-93.3439,0046,-0.05,-1.00,1.0000,183.0000
1981-11-21 11:00:00 UTC,2444929.958333,29.7697,-93.3439,0046,0.00,-19.00,19.0000,180.0000
1981-11-21 11:30:00 UTC,2444929.979167,29.7697,-93.3439,0046,1.08,-30.98,31.0000,178.0000
1981-11-21 12:00:00 UTC,2444930.000000,29.7697,-93.3439,0046,1.26,-35.98,36.0000,178.0000
1981-11-21 12:30:00 UTC,2444930.020833,29.7697,-93.3439,0046,0.65,-36.99,37.0000,179.0000
1981-11-21 13:00:00 UTC,2444930.041667,29.7697,-93.3439,0046,0.00,-36.00,36.0000,180.0000
1981-11-21 13:30:00 UTC,2444930.062500,29.7697,-93.3439,0046,0.00,-35.00,35.0000,180.0000
1981-11-21 14:00:00 UTC,2444930.083333,29.7697,-93.3439,0046,0.00,-31.00,31.0000,180.0000
1981-11-21 14:30:00 UTC,2444930.104167,29.7697,-93.3439,0046,-0.44,-25.00,25.0000,181.0000
1981-11-21 15:00:00 UTC,2444930.125000,29.7697,-93.3439,0046,1.48,-16.94,17.0000,175.0000
1981-11-21 15:30:00 UTC,2444930.145833,29.7697,-93.3439,0046,3.66,-8.22,9.0000,156.0000
1981-11-21 16:00:00 UTC,2444930.166667,29.7697,-93.3439,0046,1.87,4.64,5.0000,22.0000
1981-11-21 16:30:00 UTC,2444930.187500,29.7697,-93.3439,0046,-0.84,23.99,24.0000,358.0000
1981-11-21 17:00:00 UTC,2444930.208333,29.7697,-93.3439,0046,-1.54,43.97,44.0000,358.0000
1981-11-21 17:30:00 UTC,2444930.229167,29.7697,-93.3439,0046,-0.94,53.99,54.0000,359.0000
1981-11-21 18:00:00 UTC,2444930.250000,29.7697,-93.3439,0046,-0.96,54.99,55.0000,359.0000
1981-11-21 18:30:00 UTC,2444930.270833,29.7697,-93.3439,0046,0.00,0.00,0.0000,0.0000
1981-11-21 19:00:00 UTC,2444930.291667,29.7697,-93.3439,0046,0.00,0.00,0.0000,0.0000
1981-11-21 19:30:00 UTC,2444930.312500,29.7697,-93.3439,0046,0.00,0.00,0.0000,0.0000
1981-11-21 20:00:00 UTC,2444930.333333,29.7697,-93.3439,0046,-0.84,47.99,48.0000,359.0000
1981-11-21 20:30:00 UTC,2444930.354167,29.7697,-93.3439,0046,-0.70,39.99,40.0000,359.0000
1981-11-21 21:00:00 UTC,2444930.375000,29.7697,-93.3439,0046,0.00,0.00,0.0000,0.0000
1981-11-21 21:30:00 UTC,2444930.395833,29.7697,-93.3439,0046,-0.35,20.00,20.0000,359.0000
1981-11-21 22:00:00 UTC,2444930.416667,29.7697,-93.3439,0046,0.97,7.94,8.0000,7.0000
1981-11-21 22:30:00 UTC,2444930.437500,29.7697,-93.3439,0046,1.74,-9.85,10.0000,170.0000
1981-11-21 23:00:00 UTC,2444930.458333,29.7697,-93.3439,0046,1.41,-26.96,27.0000,177.0000
1981-11-21 23:30:00 UTC,2444930.479167,29.7697,-93.3439,0046,1.26,-35.98,36.0000,178.0000
1981-11-22 00:00:00 UTC,2444930.500000,29.7697,-93.3439,0046,2.04,-38.95,39.0000,177.0000
1981-11-22 00:30:00 UTC,2444930.520833,29.7697,-93.3439,0046,2.04,-38.95,39.0000,177.0000
1981-11-22 01:00:00 UTC,2444930.541667,29.7697,-93.3439,0046,1.26,-35.98,36.0000,178.0000
1981-11-22 01:30:00 UTC,2444930.562500,29.7697,-93.3439,0046,1.12,-31.98,32.0000,178.0000
1981-11-22 02:00:00 UTC,2444930.583333,29.7697,-93.3439,0046,1.20,-22.97,23.0000,177.0000
1981-11-22 02:30:00 UTC,2444930.604167,29.7697,-93.3439,0046,2.59,-9.66,10.0000,165.0000
1981-11-22 03:00:00 UTC,2444930.625000,29.7697,-93.3439,0046,3.36,4.97,6.0000,34.0000
1981-11-22 03:30:00 UTC,2444930.645833,29.7697,-93.3439,0046,1.78,16.91,17.0000,6.0000
1981-11-22 04:00:00 UTC,2444930.666667,29.7697,-93.3439,0046,-1.05,29.98,30.0000,358.0000
1981-11-22 04:30:00 UTC,2444930.687500,29.7697,-93.3439,0046,-1.57,44.97,45.0000,358.0000
1981-11-22 05:00:00 UTC,2444930.708333,29.7697,-93.3439,0046,-0.94,53.99,54.0000,359.0000
1981-11-22 05:30:00 UTC,2444930.729167,29.7697,-93.3439,0046,-0.94,53.99,54.0000,359.0000
1981-11-22 06:00:00 UTC,2444930.750000,29.7697,-93.3439,0046,-1.75,49.97,50.0000,358.0000
1981-11-22 06:30:00 UTC,2444930.770833,29.7697,-93.3439,0046,-1.61,45.97,46.0000,358.0000
1981-11-22 07:00:00 UTC,2444930.791667,29.7697,-93.3439,0046,-0.72,40.99,41.0000,359.0000
1981-11-22 07:30:00 UTC,2444930.812500,29.7697,-93.3439,0046,-0.61,34.99,35.0000,359.0000
1981-11-22 08:00:00 UTC,2444930.833333,29.7697,-93.3439,0046,0.00,0.00,0.0000,0.0000
1981-11-22 08:30:00 UTC,2444930.854167,29.7697,-93.3439,0046,0.42,11.99,12.0000,2.0000
1981-11-22 09:00:00 UTC,2444930.875000,29.7697,-93.3439,0046,0.97,-6.93,7.0000,172.0000
1981-11-22 09:30:00 UTC,2444930.895833,29.7697,-93.3439,0046,1.52,-28.96,29.0000,177.0000
1981-11-22 10:00:00 UTC,2444930.916667,29.7697,-93.3439,0046,1.54,-43.97,44.0000,178.0000
1981-11-22 10:30:00 UTC,2444930.937500,29.7697,-93.3439,0046,1.75,-49.97,50.0000,178.0000
1981-11-22 11:00:00 UTC,2444930.958333,29.7697,-93.3439,0046,0.94,-53.99,54.0000,179.0000
1981-11-22 11:30:00 UTC,2444930.979167,29.7697,-93.3439,0046,1.95,-55.97,56.0000,178.0000
1981-11-22 12:00:00 UTC,2444931.000000,29.7697,-93.3439,0046,1.92,-54.97,55.0000,178.0000
1981-11-22 12:30:00 UTC,2444931.020833,29.7697,-93.3439,0046,1.81,-51.97,52.0000,178.0000
1981-11-22 13:00:00 UTC,2444931.041667,29.7697,-93.3439,0046,1.64,-46.97,47.0000,178.0000
1981-11-22 13:30:00 UTC,2444931.062500,29.7697,-93.3439,0046,0.68,-38.99,39.0000,179.0000
1981-11-22 14:00:00 UTC,2444931.083333,29.7697,-93.3439,0046,0.58,-32.99,33.0000,179.0000
1981-11-22 14:30:00 UTC,2444931.104167,29.7697,-93.3439,0046,2.35,-26.90,27.0000,175.0000
1981-11-22 15:00:00 UTC,2444931.125000,29.7697,-93.3439,0046,3.53,-16.63,17.0000,168.0000
1981-11-22 15:30:00 UTC,2444931.145833,29.7697,-93.3439,0046,1.82,-3.56,4.0000,153.0000
1981-11-22 16:00:00 UTC,2444931.166667,29.7697,-93.3439,0046,0.24,14.00,14.0000,1.0000
1981-11-22 16:30:00 UTC,2444931.187500,29.7697,-93.3439,0046,-0.59,33.99,34.0000,359.0000
1981-11-22 17:00:00 UTC,2444931.208333,29.7697,-93.3439,0046,-0.80,45.99,46.0000,359.0000
1981-11-22 17:30:00 UTC,2444931.229167,29.7697,-93.3439,0046,-0.94,53.99,54.0000,359.0000
1981-11-22 18:00:00 UTC,2444931.250000,29.7697,-93.3439,0046,-2.02,57.96,58.0000,358.0000
1981-11-22 18:30:00 UTC,2444931.270833,29.7697,-93.3439,0046,-2.20,62.96,63.0000,358.0000
1981-11-22 19:00:00 UTC,2444931.291667,29.7697,-93.3439,0046,-2.41,68.96,69.0000,358.0000
1981-11-22 19:30:00 UTC,2444931.312500,29.7697,-93.3439,0046,-1.26,71.99,72.0000,359.0000
1981-11-22 20:00:00 UTC,2444931.333333,29.7697,-93.3439,0046,-1.24,70.99,71.0000,359.0000
1981-11-22 20:30:00 UTC,2444931.354167,29.7697,-93.3439,0046,-1.19,67.99,68.0000,359.0000
1981-11-22 21:00:00 UTC,2444931.375000,29.7697,-93.3439,0046,-1.08,61.99,62.0000,359.0000
1981-11-22 21:30:00 UTC,2444931.395833,29.7697,-93.3439,0046,-0.98,55.99,56.0000,359.0000
1981-11-22 22:00:00 UTC,2444931.416667,29.7697,-93.3439,0046,-0.84,47.99,48.0000,359.0000
1981-11-22 22:30:00 UTC,2444931.437500,29.7697,-93.3439,0046,-0.70,39.99,40.0000,359.0000
1981-11-22 23:00:00 UTC,2444931.458333,29.7697,-93.3439,0046,1.57,29.96,30.0000,3.0000
1981-11-22 23:30:00 UTC,2444931.479167,29.7697,-93.3439,0046,0.77,21.99,22.0000,2.0000
1981-11-23 00:00:00 UTC,2444931.500000,29.7697,-93.3439,0046,-2.66,16.79,17.0000,351.0000
1981-11-23 00:30:00 UTC,2444931.520833,29.7697,-93.3439,0046,-4.87,12.05,13.0000,338.0000
1981-11-23 01:00:00 UTC,2444931.541667,29.7697,-93.3439,0046,-3.81,5.87,7.0000,327.0000
1981-11-23 01:30:00 UTC,2444931.562500,29.7697,-93.3439,0046,-2.40,1.81,3.0000,307.0000
1981-11-23 02:00:00 UTC,2444931.583333,29.7697,-93.3439,0046,-4.01,4.46,6.0000,318.0000
1981-11-23 02:30:00 UTC,2444931.604167,29.7697,-93.3439,0046,-3.33,15.65,16.0000,348.0000
1981-11-23 03:00:00 UTC,2444931.625000,29.7697,-93.3439,0046,0.91,25.98,26.0000,2.0000
1981-11-23 03:30:00 UTC,2444931.645833,29.7697,-93.3439,0046,2.18,24.90,25.0000,5.0000
1981-11-23 04:00:00 UTC,2444931.666667,29.7697,-93.3439,0046,-0.42,24.00,24.0000,359.0000
1981-11-23 04:30:00 UTC,2444931.687500,29.7697,-93.3439,0046,-1.47,27.96,28.0000,357.0000
1981-11-23 05:00:00 UTC,2444931.708333,29.7697,-93.3439,0046,-0.58,32.99,33.0000,359.0000
1981-11-23 05:30:00 UTC,2444931.729167,29.7697,-93.3439,0046,-0.61,34.99,35.0000,359.0000
1981-11-23 06:00:00 UTC,2444931.750000,29.7697,-93.3439,0046,0.00,0.00,0.0000,0.0000
1981-11-23 06:30:00 UTC,2444931.770833,29.7697,-93.3439,0046,0.00,0.00,0.0000,0.0000
1981-11-23 07:00:00 UTC,2444931.791667,29.7697,-93.3439,0046,-0.61,34.99,35.0000,359.0000
1981-11-23 07:30:00 UTC,2444931.812500,29.7697,-93.3439,0046,-0.56,32.00,32.0000,359.0000
1981-11-23 08:00:00 UTC,2444931.833333,29.7697,-93.3439,0046,-0.44,25.00,25.0000,359.0000
1981-11-23 08:30:00 UTC,2444931.854167,29.7697,-93.3439,0046,-0.84,15.98,16.0000,357.0000
1981-11-23 09:00:00 UTC,2444931.875000,29.7697,-93.3439,0046,-2.05,6.69,7.0000,343.0000
1981-11-23 09:30:00 UTC,2444931.895833,29.7697,-93.3439,0046,-2.16,-6.66,7.0000,198.0000
1981-11-23 10:00:00 UTC,2444931.916667,29.7697,-93.3439,0046,-0.45,-26.00,26.0000,181.0000
1981-11-23 10:30:00 UTC,2444931.937500,29.7697,-93.3439,0046,0.72,-40.99,41.0000,179.0000
1981-11-23 11:00:00 UTC,2444931.958333,29.7697,-93.3439,0046,1.71,-48.97,49.0000,178.0000
1981-11-23 11:30:00 UTC,2444931.979167,29.7697,-93.3439,0046,2.88,-54.92,55.0000,177.0000
1981-11-23 12:00:00 UTC,2444932.000000,29.7697,-93.3439,0046,3.14,-59.92,60.0000,177.0000
1981-11-23 12:30:00 UTC,2444932.020833,29.7697,-93.3439,0046,3.30,-62.91,63.0000,177.0000